Regional Weather Roundup
Issued by NWS

Home | Current Version | Previous Version | Graphics & Text | Print | Product List | Glossary Off
Versions: 1 2 3 4 5 6 7 8 9 10 11 12 13 14 15 16 17 18 19 20 21 22 23 24 25 26 27 28 29 30 31 32 33 34 35 36 37 38 39 40 41 42 43 44 45 46 47 48 49 50

000
ASUS43 KDTX 171110
RWRMI
MICHIGAN HOURLY REGIONAL WEATHER ROUNDUP
NATIONAL WEATHER SERVICE DETROIT/PONTIAC MI
600 AM EST SAT FEB 17 2018

NOTE: "FAIR" INDICATES FEW OR NO CLOUDS BELOW 12,000 FEET WITH NO
SIGNIFICANT WEATHER AND/OR OBSTRUCTION TO VISIBILITY.

MIZ047>049-052>055-059>063-066>070-074>076-081>083-171200-
SOUTHEAST LOWER MICHIGAN

CITY           SKY/WX    TMP DP  RH WIND       PRES   REMARKS
ADRIAN         MOCLDY    23  19  85 S5        30.21F WCI  17
ALMA           FAIR      21  18  86 S3        30.15F
ANN ARBOR      CLOUDY    17  15  92 CALM      30.20F
BAD AXE        FAIR      20  15  81 SW7       30.17F WCI  11
CARO           FAIR      17  14  88 CALM      30.17F
DETROIT CITY   FAIR      20  16  84 S6        30.22F WCI  12
DETROIT        FAIR      19  16  88 S5        30.22F WCI  12
FLINT          CLOUDY    19  15  84 S6        30.18F WCI  11
GROSSE ILE     FAIR      28  23  81 MISG      30.22F
HILLSDALE      FAIR      21  18  86 S6        30.16S WCI  14
HOWELL         CLOUDY    23  19  83 S7        30.17F WCI  15

CITY           SKY/WX    TMP DP  RH WIND       PRES   REMARKS
JACKSON        MOCLDY    23  18  81 SE6       30.16F WCI  16
LAMBERTVILLE   FAIR      23  20  88 CALM      30.22F
LANSING        FAIR      19  16  88 S6        30.16F WCI  11
LAPEER         CLOUDY    14  12  91 SE3       30.19F
MASON          CLOUDY    23  17  77 S3        30.16F
MONROE         FAIR      23  18  82 S5        30.22S WCI  17
MT. CLEMENS    FAIR      19  18  96 S6        30.20F WCI  11
PONTIAC        CLOUDY    20  16  84 CALM      30.17F
PORT HOPE        N/A     21  14  74 VRB5      30.15F WCI  15
PORT HURON     FAIR      12  10  92 CALM      30.22S
TRI CITIES     FAIR      21  15  78 S7        30.16F WCI  12
MIDLAND        FAIR      21  16  80 S7        30.14F WCI  12
TROY           MOCLDY    23  17  78 SW3       30.23S
SAGINAW HB     MOCLDY    21  18  86 S7        30.17F WCI  13
$$
MIZ043>046-050>051-056>058-064>065-071>073-077>080-171200-
SOUTHWEST LOWER MICHIGAN

CITY           SKY/WX    TMP DP  RH WIND       PRES   REMARKS
BATTLE CREEK   FAIR      17  15  92 S7        30.16S WCI   8
BENTON HARBOR  FAIR      18  12  77 S7        30.17F WCI   9
BIG RAPIDS     FAIR      14  10  83 S3        30.08F
COLDWATER      CLOUDY    22  20  93 CALM      30.17F
FREMONT        FAIR      17  10  75 S3        30.10F
HOLLAND        FAIR      19  15  84 S5        30.14F WCI  12
GRAND RAPIDS   MOCLDY    20  14  77 S8        30.13F WCI  10
IONIA          MOCLDY    21  16  81 S6        30.14F WCI  13
KALAMAZOO      MOCLDY    18  15  88 S7        30.17S FOG     WCI   9
LUDINGTON      FAIR      24  15  67 SW9       30.08F WCI  15
MARSHALL       FAIR      20  18  92 S5        30.16S WCI  14
MOUNT PLEASANT FAIR      21  15  76 S6        30.12F WCI  13
MUSKEGON       MOCLDY    24  13  62 SW8       30.12F WCI  15
SOUTH HAVEN    FAIR      20  16  86 S5        30.16S WCI  13
$$
MIZ016>042-171200-
NORTHERN LOWER MICHIGAN

CITY           SKY/WX    TMP DP  RH WIND       PRES   REMARKS
ALPENA         FAIR      16  10  77 SW6       30.09F WCI   7
BEAVER ISLAND  FAIR      23  12  61 SW12      30.00F WCI  12
BELLAIRE       FAIR      15  11  85 SW3       30.07F
CADILLAC       FAIR      14   9  81 SW5       30.04R WCI   6
CHARLEVOIX     FAIR      19  12  75 S6        30.07F WCI  11
FRANKFORT      FAIR      27  12  53 SW8       30.05F WCI  19
GAYLORD        FAIR      15   9  76 SW14      30.01F WCI   0
GRAYLING       FAIR      12   8  84 S6        30.05F WCI   3
HARBOR SPRINGS FAIR      15   9  74 CALM      30.03F
HOUGHTON LAKE  FAIR      13   8  81 S3        30.08F
MANISTEE       FAIR      13   9  84 E3        30.08F
OSCODA         FAIR      18  10  71 S10       30.12F WCI   6
PELLSTON       FAIR      13   9  84 SE9       30.03F WCI   1
ROGERS CITY    FAIR      15   9  75 S7        30.08F WCI   5
TRAVERSE CITY  FAIR      21  10  62 VRB7      30.06F WCI  12
$$
MIZ007>008-015-171200-
EASTERN UPPER MICHIGAN

CITY           SKY/WX    TMP DP  RH WIND       PRES   REMARKS
KINROSS        FAIR      14   6  70 VRB3      30.00F
MACKINAC ISLAN FAIR      15  10  78 S7        30.02F WCI   5
NEWBERRY       FAIR      11   2  67 SW10      29.96F WCI  -2
S. S. MARIE    FAIR       5   1  83 E3        29.98F
MUNISING         N/A     13  -2  51 S12       29.93F WCI  -1
$$
MIZ004>006-011>014-085-171200-
CENTRAL UPPER MICHIGAN

CITY           SKY/WX    TMP DP  RH WIND       PRES   REMARKS
MANISTIQUE     FAIR      20   7  57 SW8G16    29.97F WCI  10
ESCANABA       FAIR      11   4  73 SW9       29.98F WCI  -2
MENOMINEE      FAIR      15   5  64 SW9       29.99F WCI   3
SAWYER-GWINN   MOCLDY     9  -4  54 S10       29.87F WCI  -5
$$
MIZ001>003-009>011-084-171200-
WESTERN UPPER MICHIGAN

CITY           SKY/WX    TMP DP  RH WIND       PRES   REMARKS
IRON MOUNTAIN  FAIR      10  -2  58 SE6       29.87F WCI   0
HOUGHTON       CLOUDY    18   3  52 SW9       29.76F WCI   7
COPPER HARBOR    N/A     18   2  49 W12G21    29.78F WCI   5
IRONWOOD       MOCLDY    16   8  71 SW15G23   29.79F WCI   1
$$

ABBREVIATIONS USED IN REMARKS
   TC - TEMPERATURE IN CELSIUS
  WCI - WIND CHILL INDEX
   HX - HEAT INDEX
  VSB - VISIBILITY





USA.gov is the U.S. government's official web portal to all federal, state and local government web resources and services.